Location: Unspecified
(0.0000°N, 0.0000°E)
Time: 12:23:53
(UTC+02:00)

NATO 3D Rocket - Visible Passes

Search period start: 27 September 2016 00:00
Search period end: 07 October 2016 00:00
Orbit: 670 x 2296 km, 21.5° (Epoch: 25 September)

Date Brightness Start Highest point End Pass type
(mag) Time Alt. Az. Time Alt. Az. Time Alt. Az.
27 Sep 3.5 06:15:06 52° WSW 06:16:32 82° SSE 06:21:28 10° ENE visible
27 Sep 6.5 20:39:45 10° W 20:52:24 45° SSW 21:05:18 10° SE visible
27 Sep 6.7 22:48:57 10° WSW 23:00:18 29° S 23:01:20 28° S visible
28 Sep 5.1 05:21:47 35° E 05:21:47 35° E 05:24:48 10° E visible
28 Sep 4.2 07:17:24 10° W 07:22:39 37° NNW 07:27:04 10° NE visible
28 Sep 6.7 21:49:04 10° WSW 22:01:00 33° SSW 22:07:49 22° SSE visible
28 Sep 7.2 23:58:54 10° SW 00:03:21 19° SW 00:03:21 19° SW visible
29 Sep 3.8 06:24:02 43° W 06:25:44 58° NNW 06:30:43 10° NE visible
29 Sep 6.7 20:49:41 10° WSW 21:01:37 37° SSW 21:13:58 10° SE visible
29 Sep 6.8 22:58:54 10° WSW 23:09:47 27° S 23:09:47 27° S visible
30 Sep 4.7 05:30:41 45° ENE 05:30:41 45° ENE 05:34:16 10° ENE visible
30 Sep 4.9 07:27:23 10° WNW 07:31:53 23° NNW 07:35:44 10° NNE visible
30 Sep 6.7 19:50:53 10° W 20:02:19 42° SSW 20:15:20 10° SE visible
30 Sep 6.8 21:59:09 10° WSW 22:10:33 29° S 22:16:10 23° SSE visible
01 Oct 7.3 00:08:09 10° SW 00:11:42 17° SW 00:11:42 17° SW visible
01 Oct 6.6 04:37:20 12° ENE 04:37:20 12° ENE 04:37:41 10° ENE visible
01 Oct 4.5 06:32:53 29° WNW 06:34:52 36° NNW 06:39:39 10° NE visible
01 Oct 6.9 20:59:49 10° WSW 21:11:05 31° S 21:22:31 11° SE visible
01 Oct 6.8 23:08:31 10° SW 23:18:02 27° S 23:18:02 27° S visible
02 Oct 4.7 05:39:31 42° NNE 05:39:31 42° NNE 05:43:26 10° NE visible
02 Oct 6.8 20:00:58 10° WSW 20:11:42 34° S 20:23:56 10° SE visible
02 Oct 6.8 22:09:04 10° SW 22:20:16 28° S 22:24:20 25° SSE visible
03 Oct 7.4 00:16:57 10° SW 00:19:53 17° SW 00:19:53 17° SW visible
03 Oct 6.4 04:46:06 15° ENE 04:46:06 15° ENE 04:47:01 10° ENE visible
03 Oct 5.1 06:41:39 19° NW 06:44:00 24° NNW 06:48:22 10° NNE visible
03 Oct 6.9 21:09:56 10° WSW 21:20:45 29° S 21:30:37 13° SE visible
03 Oct 6.8 23:17:41 10° SW 23:26:08 28° SSW 23:26:08 28° SSW visible
04 Oct 5.1 05:48:14 33° N 05:48:14 33° N 05:52:22 10° NE visible
04 Oct 6.9 20:11:11 10° WSW 20:21:19 29° S 20:32:49 10° SE visible
04 Oct 6.7 22:18:36 10° SW 22:29:59 29° S 22:32:23 28° SSE visible
05 Oct 7.4 00:25:29 10° SW 00:27:54 16° SW 00:27:54 16° SW visible
05 Oct 6.2 04:54:46 17° NE 04:54:46 17° NE 04:56:06 10° NE visible
05 Oct 5.6 06:50:19 13° NW 06:53:17 17° NNW 06:56:55 10° NNE visible
05 Oct 6.9 21:19:48 10° SW 21:30:29 28° S 21:38:35 17° SE visible
05 Oct 6.8 23:26:29 10° SW 23:34:06 29° SSW 23:34:06 29° SSW visible
06 Oct 5.5 05:56:49 25° NNW 05:56:49 25° NNW 06:01:08 10° NNE visible
06 Oct 6.9 20:21:19 10° SW 20:31:03 27° S 20:42:07 10° SE visible
06 Oct 6.5 22:27:44 10° SW 22:39:36 33° S 22:40:18 33° SSE visible
